Location: Ostrava
(49.8330°N, 18.2830°E)
Time: 09:37:25
(UTC+01:00)

Explorer 7 - Visible Passes

Search period start: 07 December 2016 00:00
Search period end: 17 December 2016 00:00
Orbit: 486 x 685 km, 50.3° (Epoch: 06 December)

Date Brightness Start Highest point End Pass type
(mag) Time Alt. Az. Time Alt. Az. Time Alt. Az.
07 Dec 9.4 03:57:14 18° ESE 03:57:14 18° ESE 03:58:30 10° ESE visible
07 Dec 8.5 05:33:38 21° SW 05:34:15 22° SW 05:37:44 10° SSE visible
08 Dec 9.5 04:03:22 16° SE 04:03:22 16° SE 04:04:26 10° SE visible
08 Dec 8.9 05:39:47 15° SW 05:40:07 15° SW 05:42:37 10° S visible
09 Dec 9.6 04:09:34 13° SSE 04:09:34 13° SSE 04:10:12 10° SE visible
